Regional Weather Roundup
Issued by NWS

Home | Current Version | Previous Version | Graphics & Text | Print | Product List | Glossary On
Versions: 1 2 3 4 5 6 7 8 9 10 11 12 13 14 15 16 17 18 19 20 21 22 23 24 25 26 27 28 29 30 31 32 33 34 35 36 37 38 39 40 41 42 43 44 45 46 47 48 49 50
000
ASUS43 KLSX 271710
RWRMO

WEATHER SUMMARY FOR MISSOURI
NATIONAL WEATHER SERVICE SPRINGFIELD MO
1200 PM CDT WED JUL 27 2016

NOTE: "FAIR" INDICATES FEW OR NO CLOUDS BELOW 12,000 FEET WITH NO
       SIGNIFICANT WEATHER AND/OR OBSTRUCTIONS TO VISIBILITY.
       CURRENT SKY AND/OR WEATHER CONDITIONS ARE NOT AVAILABLE FOR
       CHILLICOTHE AND FARMINGTON.

MOZ001>031-035>038-043-044-053-054-271800-
...NORTHERN AND WESTERN MISSOURI...

CITY           SKY/WX    TMP DP  RH WIND       PRES   REMARKS
KANSAS CTY INT PTSUNNY   84  70  62 CALM      30.01R
KANSAS C DTWN  SUNNY     88  68  51 E5        29.98R HX  91
LEE`S SUMMIT   SUNNY     85  70  60 SE6       30.00S
ST JOSEPH      SUNNY     83  69  62 S5        30.01R
CHILLICOTHE      N/A     87  71  58 VRB6      30.00S HX  93
KIRKSVILLE     MOSUNNY   86  69  56 VRB7      30.01F HX  90

$$
MOZ066>068-077>081-088>096-101>105-271800-
...SOUTHWEST MISSOURI...

CITY           SKY/WX    TMP DP  RH WIND       PRES   REMARKS
SPRINGFIELD    PTSUNNY   77  72  84 SE3       30.01S
JOPLIN         CLOUDY    85  76  74 VRB3      29.99S HX  94
BRANSON        PTSUNNY   82  73  74 CALM      30.03S

$$
MOZ032>034-039>042-045>050-055>058-069>072-271800-
...CENTRAL MISSOURI...

CITY           SKY/WX    TMP DP  RH WIND       PRES   REMARKS
COLUMBIA       PTSUNNY   84  74  71 VRB5      30.00S HX  91
JEFFERSON CITY MOSUNNY   86  72  62 CALM      29.99S HX  92
ROLLA          CLOUDY    82  73  74 W5        30.01S
SEDALIA        SUNNY     87  74  64 CALM      30.00F HX  95
WHITEMAN AFB   MOSUNNY   85  75  70 VRB3      29.97F HX  93
OSAGE BEACH    PTSUNNY   84  75  74 S5        30.00R HX  92

$$
MOZ051-052-059>065-271800-
...EAST CENTRAL MISSOURI...

CITY           SKY/WX    TMP DP  RH WIND       PRES   REMARKS
ST LOUIS INTL  PTSUNNY   87  72  60 VRB3      30.00S HX  93
SPIRIT OF STL  CLOUDY    86  76  71 CALM      29.98S HX  96
ST CHARLES     MOSUNNY   84  75  74 CALM      29.99R HX  92

$$
MOZ072>076-082>087-097>100-106>115-271800-
...SOUTH CENTRAL AND SOUTHEAST MISSOURI...

CITY           SKY/WX    TMP DP  RH WIND       PRES   REMARKS
CAPE GIRARDEAU SUNNY     86  73  65 CALM      29.99F HX  93
FARMINGTON     SUNNY     81  73  76 CALM      30.02F
POPLAR BLUFF   MOSUNNY   87  76  69 E3        29.99S HX  97
WEST PLAINS    PTSUNNY   85  73  67 CALM      30.04S HX  91

$$




USA.gov is the U.S. government's official web portal to all federal, state and local government web resources and services.